Lid_Strength_Index
12 15 18 16 15 16 16 18 18 17 15 16 17 17 14 14 15 15 15 15 14 14 13 12 11 11 11 11 11 11 11 10 11 11 11 11 10 9 8 6 6 5 3 3
14 16 15 14 14 15 16 17 18 16 16 16 16 16 14 15 15 15 15 15 15 14 13 12 12 12 12 12 12 12 11 11 11 11 11 10 10 9 7 6 5 4 4 3
16 15 13 14 16 16 17 18 18 18 16 16 17 17 16 16 15 15 15 15 15 14 14 13 13 13 13 13 13 12 12 11 11 10 10 10 10 9 7 7 6 5 3 2
15 13 14 16 16 16 18 16 16 16 18 19 17 20 17 17 16 15 15 15 15 14 14 13 13 13 13 13 13 12 11 11 11 10 10 11 11 9 7 6 7 5 4 3
17 15 15 16 16 16 17 15 16 17 18 18 19 20 17 18 17 16 15 15 15 14 14 13 13 12 13 13 14 13 12 12 11 10 10 11 11 8 7 6 6 5 4 3
17 14 14 15 15 15 15 15 16 16 18 22 19 19 18 18 17 17 16 15 14 14 14 13 13 12 13 14 14 14 13 12 11 10 11 11 11 9 7 8 7 5 4 4
17 17 14 14 17 15 16 18 24 22 23 21 19 21 17 16 15 15 15 15 14 14 14 14 13 13 14 14 14 13 13 13 11 11 11 10 11 9 8 8 8 6 7 6
21 21 16 15 16 17 18 18 21 24 22 20 20 20 16 15 15 15 15 15 15 14 14 13 13 13 13 14 14 13 14 12 11 11 11 11 11 10 8 8 8 8 7 5
21 20 16 16 15 16 18 20 17 21 25 22 19 17 14 16 16 17 16 16 15 14 14 13 13 13 13 14 14 14 14 12 11 12 12 11 11 11 9 8 7 8 7 5
17 22 19 17 16 16 18 17 20 21 24 24 20 18 17 17 16 16 16 16 15 14 14 14 13 14 14 14 14 15 13 12 11 12 12 10 11 11 10 8 8 7 6 6
16 17 21 19 19 19 19 20 19 18 19 21 22 18 13 14 15 16 16 16 15 15 14 14 14 14 14 15 15 14 13 12 11 11 11 10 12 11 10 9 8 7 7 6
15 18 22 20 19 17 19 18 18 20 22 21 20 18 13 12 14 15 16 15 15 14 14 14 14 14 15 15 16 14 13 12 12 11 10 11 12 11 10 10 9 8 8 7
14 19 23 21 19 19 19 18 17 17 19 22 20 18 12 14 15 15 15 15 15 14 14 14 14 15 15 16 16 15 13 12 12 11 10 11 12 10 9 10 10 9 9 8
12 18 20 21 19 18 21 19 17 18 22 20 19 17 12 14 15 15 15 15 15 15 14 14 14 15 15 16 16 15 14 13 12 11 10 11 11 9 9 10 10 10 9 8
13 19 20 18 17 18 18 19 19 20 17 19 19 18 13 12 14 15 14 14 16 17 16 15 15 15 15 16 16 15 14 13 13 11 11 12 10 10 10 10 10 11 10 10
14 19 19 21 19 18 19 18 19 20 21 20 17 18 13 11 12 14 14 14 15 15 15 14 15 15 15 16 16 15 16 14 12 13 12 11 10 10 10 10 10 10 11 10
15 17 19 20 20 18 19 20 18 18 18 17 19 15 11 12 12 12 12 13 13 13 13 14 13 14 14 15 15 15 14 14 13 13 12 11 11 11 10 11 10 10 11 10
14 15 15 21 18 21 16 16 16 16 16 15 16 14 12 11 10 11 11 11 11 12 12 12 12 14 15 15 15 14 14 14 14 14 11 12 12 12 12 12 11 11 11 11
10 13 16 19 20 17 15 15 15 16 15 14 15 13 12 12 12 12 11 11 10 11 11 12 12 13 14 15 14 14 15 15 15 14 12 12 12 13 12 12 11 11 11 11
10 10 14 15 20 23 16 13 13 13 16 12 12 13 12 12 15 12 10 10 10 11 11 12 13 14 14 14 13 14 14 15 15 13 13 13 13 13 13 13 13 14 13 13
14 13 15 16 17 17 13 12 12 17 14 11 11 12 12 14 12 11 11 12 12 12 13 14 14 14 14 14 13 14 14 13 14 14 14 13 13 13 13 14 13 13 13 13
14 15 16 15 17 18 12 13 14 11 11 11 10 11 11 12 11 12 12 13 14 14 14 14 14 15 15 14 13 14 14 14 14 14 14 15 14 13 13 13 14 14 13 13
15 12 14 13 14 11 11 11 10 10 10 10 10 10 10 11 11 12 13 14 14 15 15 15 15 16 15 14 13 14 15 15 14 14 14 15 15 14 14 13 14 14 14 15
13 11 13 13 11 10 10 9 9 9 9 9 9 9 10 10 10 12 13 14 15 15 16 17 17 17 16 14 14 13 15 14 14 14 14 15 15 14 14 14 14 13 14 14
13 12 14 12 11 10 9 9 7 9 8 9 9 9 10 10 10 12 14 15 15 16 18 17 16 17 16 15 15 15 14 14 14 14 15 15 15 15 15 16 15 15 16 15
13 13 12 13 9 9 8 7 7 8 9 9 10 11 11 11 11 12 14 15 15 16 18 18 17 17 16 15 15 15 14 13 13 14 15 15 16 16 15 15 15 14 14 14